Starlink 4470

operational
NORAD ID: 53655 Int'l Des: 2022-105 Owner: SPXS Country: US Constellation: starlink
LEOCIRCULARRETROGRADESSO

Starlink 4470について

説明を読み込み中...

リアルタイム位置

3D地球を読み込み中...

次回通過

高度履歴

Altitude vs Time

uPlot chart will show altitude changes over time

軌道要素

1 53655U 22105H 26036.11594901 -.00002607 00000-0 -17654-3 0 9994
2 53655 97.6025 279.0635 0002760 76.5170 283.6364 15.05644605188395
Epoch: Feb 5, 2026 • Age: 11 hours

現在のステータス

高度 577.4 km
速度 7.57 km/s
衛星直下点 -70.51°S, 38.62°W
打ち上げ日 Aug 31, 2022
運用期間 3.4 years
タイプ internet

技術仕様

分類 Payload
質量 300.00 kg
乾燥質量 290.00 kg
総質量 300.00 kg
長さ 0.20 m
直径 2.80 m
スパン 9.00 m
形状 Box + pan
製造者 SPXS
バスタイプ Starlink
フェーズステータス In Orbit
所有者/国 SPXS/US

大規模コンステレーション

Loading constellations...